Location: Gradaro
(45.0833°N, 10.8833°E)
Time: 14:18:26
(UTC+00:00)

USA 308 - Pass Details

Date: 29 November 2020
Orbit: 567 x 580 km, 54.0° (Epoch: 22 January)

Event Time Altitude Azimuth Distance (km) Brightness Sun altitude
Exits shadow 05:13:17 16° 323° (NW) 1,521 4.6 -13.7°
Maximum altitude 05:15:51 28° 13° (NNE) 1,094 4.3 -13.2°
Drops below altitude 10° 05:19:34 10° 73° (ENE) 1,887 6.4 -12.6°
Sets 05:22:05 0° 85° (E) 2,787 7.8 -12.2°
